Location: Astronomy Adventures Observing Site
(35.3995°N, 106.1279°W)
Time: 18:58:09
(UTC-06:00)

Envisat - Pass Details

Date: 25 January 2022
Orbit: 764 x 765 km, 98.2° (Epoch: 27 May)

Event Time Altitude Azimuth Distance (km) Brightness Sun altitude
Rises 06:19:35 0° 350° (N) 3,234 6.0 -10.3°
Reaches altitude 10° 06:23:03 10° 325° (NW) 2,304 5.0 -9.6°
Maximum altitude 06:25:28 14° 296° (WNW) 2,062 4.6 -9.1°
Drops below altitude 10° 06:27:52 10° 267° (W) 2,298 4.9 -8.7°
Sets 06:31:20 0° 242° (WSW) 3,219 5.8 -8.0°
